Погода в Ершипоси

Россия / Чувашская Республика     55°24′25″N   47°00′27″E
темп.,
°C
ветер,
м/с
пор.,
м/с
влажн.,
%
обл.,
%
осадки,
мм/ч
давл.,
гПа
погр.,
м
4 июля, пн
пн400:00+15с3876100 0.0 1013291
03:00+14с378188 0.1 1013228
06:00+13ссв5108284 0.0 1014497
09:00+17ссв695832 0.0 10141275
12:00+20ссв695127 0.0 10142177
15:00+20св6854100 0.0 10141998
18:00+18св476512 0.0 1014496
21:00+13св3479100 0.0 101559
5 июля, вт
вт500:00+11св118878 0.0 101610
03:00+10с229180 0.0 101721
06:00+13св35795 0.0 1018168
09:00+17в235994 0.0 1018760
12:00+20всв114814 0.0 10181492
15:00+21с124759 0.0 10181556
18:00+20сз126138 0.0 1018656
21:00+14зюз22716 0.0 101711
6 июля, ср
ср600:00+12зюз22800 0.0 101819
03:00+11зюз22845 0.0 101819
06:00+14зюз36795 0.0 1018170
09:00+20зюз346056 0.0 1018531
12:00+23зюз334979 0.0 10171169
15:00+25зюз34488 0.0 10161441
18:00+23зюз3569100 0.0 1016202
21:00+18ююз357915 0.0 101667
7 июля, чт
чт700:00+16юз36837 0.0 101682
03:00+15юз37885 0.0 1016103
06:00+18ююз37825 0.0 1016189
09:00+23юз456894 0.0 1016558
12:00+27юз345887 0.0 10161199
15:00+27юз4560100 0.3 10151250
18:00+25юз3574100 0.6 1016147
21:00+20ююз36874 1.4 101689
8 июля, пт
пт800:00+19зюз3393100 1.1 101658
03:00+18зюз239498 1.1 101648
06:00+20зсз228975 0.0 1017131
09:00+24з237299 0.0 1017529
12:00+27з345795 0.0 10171342
15:00+28зюз345248 0.0 10161946
18:00+27юз24709 0.2 1015121
21:00+22зсз118069 0.4 101611